Regional Weather Roundup
Issued by NWS Goodland, KS

Home | Current Version | Previous Version | Graphics & Text | Print | Product List | Glossary On
Versions: 1 2 3 4 5 6 7 8 9 10 11 12 13 14 15 16 17 18 19 20 21 22 23 24 25 26 27 28 29 30 31 32 33 34 35 36 37 38 39 40 41 42 43 44 45 46 47 48 49 50
000
ASUS43 KGLD 210508
RWRGLD

GOODLAND FORECAST AREA HOURLY WEATHER ROUNDUP
NATIONAL WEATHER SERVICE GOODLAND KS
1100 PM MDT MON OCT 20 2014

...OFFICIAL OBSERVATIONS...

CITY           SKY/WX    TMP DP  RH WIND       PRES   REMARKS
GOODLAND KS    CLEAR     51  39  63 S12       30.11F
HILL CITY KS   CLEAR     47  40  76 W5        30.08F
IMPERIAL NEB   CLEAR     56  37  49 S10       30.07S
MCCOOK NEB     CLEAR     55  40  56 S7        30.06F
AKRON CO       CLEAR     56  42  59 S15       30.08F
BURLINGTON CO  CLEAR     52  39  61 S12       30.12S
LIMON CO       CLEAR     48  41  76 S9        30.16S
$$

...UNOFFICIAL OBSERVATIONS...

CITY           SKY/WX    TMP DP  RH WIND       PRES   REMARKS
COLBY KS       CLEAR     57  45  62 S13       30.10S
GOVE KS          N/A     55  32  41 MISG        N/A
NORTON KS      CLEAR     55  37  50 SW7       30.06F
SHARON SPRINGS   N/A     52  42  69 N10         N/A
TRENTON NEB      N/A     52  32  46 S7          N/A
KIT CARSON CO    N/A     49  40  72 CALM        N/A
YUMA CO          N/A     55  40  58 S17         N/A
$$


USA.gov is the U.S. government's official web portal to all federal, state and local government web resources and services.